Year,Month,Day,Hour,Minute,Value (Times are PST for temperature in C)
2009,02,21,12,02,6.90
2009,02,21,12,03,7.00
2009,02,21,12,04,7.00
2009,02,21,12,05,7.00
2009,02,21,12,06,7.00
2009,02,21,12,07,7.00
2009,02,21,12,08,7.00
2009,02,21,12,09,6.90
2009,02,21,12,10,6.90
2009,02,21,12,11,6.90
2009,02,21,12,12,6.80
2009,02,21,12,13,6.80
2009,02,21,12,14,6.80
2009,02,21,12,15,6.80
2009,02,21,12,16,6.80
2009,02,21,12,17,6.80
2009,02,21,12,18,6.80
2009,02,21,12,19,6.80
2009,02,21,12,20,6.90
2009,02,21,12,21,6.90
2009,02,21,12,22,7.00
2009,02,21,12,23,7.00
2009,02,21,12,24,7.10
2009,02,21,12,25,7.20
2009,02,21,12,26,7.20
2009,02,21,12,27,7.20
2009,02,21,12,28,7.30
2009,02,21,12,29,7.30
2009,02,21,12,30,7.40
2009,02,21,12,31,7.40
2009,02,21,12,32,7.50
2009,02,21,12,33,7.60
2009,02,21,12,34,7.60
2009,02,21,12,35,7.60
2009,02,21,12,36,7.60
2009,02,21,12,37,7.60
2009,02,21,12,38,7.60
2009,02,21,12,39,7.60
2009,02,21,12,40,7.70
2009,02,21,12,41,7.70
2009,02,21,12,42,7.70
2009,02,21,12,43,7.70
2009,02,21,12,44,7.60
2009,02,21,12,45,7.60
2009,02,21,12,46,7.70
2009,02,21,12,47,7.70
2009,02,21,12,48,7.70
2009,02,21,12,49,7.70
2009,02,21,12,50,7.70
2009,02,21,12,51,7.70
2009,02,21,12,52,7.70
2009,02,21,12,53,7.70
2009,02,21,12,54,7.70
2009,02,21,12,55,7.70
2009,02,21,12,56,7.70
2009,02,21,12,57,7.70
2009,02,21,12,58,7.70
2009,02,21,12,59,7.70
2009,02,21,13,00,7.70
2009,02,21,13,01,7.70
2009,02,21,13,02,7.70
2009,02,21,13,03,7.70
2009,02,21,13,04,7.60
2009,02,21,13,05,7.60
2009,02,21,13,06,7.60
2009,02,21,13,07,7.50
2009,02,21,13,08,7.50
2009,02,21,13,09,7.50
2009,02,21,13,10,7.50
2009,02,21,13,11,7.50
2009,02,21,13,12,7.50
2009,02,21,13,13,7.50
2009,02,21,13,14,7.60
2009,02,21,13,15,7.60
2009,02,21,13,16,7.60
2009,02,21,13,17,7.60
2009,02,21,13,18,7.60
2009,02,21,13,19,7.70
2009,02,21,13,20,7.70
2009,02,21,13,21,7.70
2009,02,21,13,22,7.70
2009,02,21,13,23,7.70
2009,02,21,13,24,7.70
2009,02,21,13,25,7.70
2009,02,21,13,26,7.60
2009,02,21,13,27,7.60
2009,02,21,13,28,7.60
2009,02,21,13,29,7.60
2009,02,21,13,30,7.50
2009,02,21,13,31,7.50
2009,02,21,13,32,7.50
2009,02,21,13,33,7.40
2009,02,21,13,34,7.40
2009,02,21,13,35,7.40
2009,02,21,13,36,7.40
2009,02,21,13,37,7.40
2009,02,21,13,38,7.40
2009,02,21,13,39,7.40
2009,02,21,13,40,7.40
2009,02,21,13,41,7.40
2009,02,21,13,42,7.40
2009,02,21,13,43,7.30
2009,02,21,13,44,7.30
2009,02,21,13,45,7.30
2009,02,21,13,46,7.30
2009,02,21,13,47,7.30
2009,02,21,13,48,7.30
2009,02,21,13,49,7.30
2009,02,21,13,50,7.30
2009,02,21,13,51,7.30
2009,02,21,13,52,7.20
2009,02,21,13,53,7.20
2009,02,21,13,54,7.20
2009,02,21,13,55,7.20
2009,02,21,13,56,7.20
2009,02,21,13,57,7.20
2009,02,21,13,58,7.10
2009,02,21,13,59,7.10
2009,02,21,14,00,7.10
2009,02,21,14,01,7.10
2009,02,21,14,02,7.20
2009,02,21,14,03,7.20
2009,02,21,14,04,7.20
2009,02,21,14,05,7.20
2009,02,21,14,06,7.20
2009,02,21,14,07,7.20
2009,02,21,14,08,7.20
2009,02,21,14,09,7.20
2009,02,21,14,10,7.20
2009,02,21,14,11,7.20
2009,02,21,14,12,7.20
2009,02,21,14,13,7.30
2009,02,21,14,14,7.30
2009,02,21,14,15,7.30
2009,02,21,14,16,7.40
2009,02,21,14,17,7.40
2009,02,21,14,18,7.50
2009,02,21,14,19,7.50
2009,02,21,14,20,7.60
2009,02,21,14,21,7.60
2009,02,21,14,22,7.70
2009,02,21,14,23,7.70
2009,02,21,14,24,7.70
2009,02,21,14,25,7.80
2009,02,21,14,26,7.80
2009,02,21,14,27,7.80
2009,02,21,14,28,7.80
2009,02,21,14,29,7.90
2009,02,21,14,30,7.90
2009,02,21,14,31,8.00
2009,02,21,14,32,8.00
2009,02,21,14,33,8.10
2009,02,21,14,34,8.10
2009,02,21,14,35,8.20
2009,02,21,14,36,8.20
2009,02,21,14,37,8.20
2009,02,21,14,38,8.20
2009,02,21,14,39,8.20
2009,02,21,14,40,8.20
2009,02,21,14,41,8.20
2009,02,21,14,42,8.20
2009,02,21,14,43,8.20
2009,02,21,14,44,8.30
2009,02,21,14,45,8.30
2009,02,21,14,46,8.30
2009,02,21,14,47,8.30
2009,02,21,14,48,8.30
2009,02,21,14,49,8.30
2009,02,21,14,50,8.40
2009,02,21,14,51,8.40
2009,02,21,14,52,8.40
2009,02,21,14,53,8.40
2009,02,21,14,54,8.40
2009,02,21,14,55,8.40
2009,02,21,14,56,8.30
2009,02,21,14,57,8.30
2009,02,21,14,58,8.30
2009,02,21,14,59,8.30
2009,02,21,15,00,8.30
2009,02,21,15,01,8.30
2009,02,21,15,02,8.30
2009,02,21,15,03,8.20
2009,02,21,15,04,8.20
2009,02,21,15,05,8.20
2009,02,21,15,06,8.20
2009,02,21,15,07,8.30
2009,02,21,15,08,8.30
2009,02,21,15,09,8.30
2009,02,21,15,10,8.30
2009,02,21,15,11,8.20
2009,02,21,15,12,8.20
2009,02,21,15,13,8.20
2009,02,21,15,14,8.20
2009,02,21,15,15,8.20
2009,02,21,15,16,8.20
2009,02,21,15,17,8.10
2009,02,21,15,18,8.10
2009,02,21,15,19,8.10
2009,02,21,15,20,8.10
2009,02,21,15,21,8.10
2009,02,21,15,22,8.00
2009,02,21,15,23,8.00
2009,02,21,15,24,8.00
2009,02,21,15,25,8.00
2009,02,21,15,26,8.00
2009,02,21,15,27,8.00
2009,02,21,15,28,8.00
2009,02,21,15,29,8.00
2009,02,21,15,30,8.00
2009,02,21,15,31,7.90
2009,02,21,15,32,7.90
2009,02,21,15,33,7.90
2009,02,21,15,34,7.90
2009,02,21,15,35,7.80
2009,02,21,15,36,7.80
2009,02,21,15,37,7.80
2009,02,21,15,38,7.80
2009,02,21,15,39,7.80
2009,02,21,15,40,7.80
2009,02,21,15,41,7.80
2009,02,21,15,42,7.80
2009,02,21,15,43,7.80
2009,02,21,15,44,7.80
2009,02,21,15,45,7.80
2009,02,21,15,46,7.80
2009,02,21,15,47,7.80
2009,02,21,15,48,7.80
2009,02,21,15,49,7.80
2009,02,21,15,50,7.80
2009,02,21,15,51,7.80
2009,02,21,15,52,7.80
2009,02,21,15,53,7.80
2009,02,21,15,54,7.80
2009,02,21,15,55,7.80
2009,02,21,15,56,7.80
2009,02,21,15,57,7.80
2009,02,21,15,58,7.80
2009,02,21,15,59,7.80
2009,02,21,16,00,7.80
2009,02,21,16,01,7.80
2009,02,21,16,02,7.80
2009,02,21,16,03,7.80
2009,02,21,16,04,7.70
2009,02,21,16,05,7.70
2009,02,21,16,06,7.70
2009,02,21,16,07,7.70
2009,02,21,16,08,7.70
2009,02,21,16,09,7.70
2009,02,21,16,10,7.70
2009,02,21,16,11,7.70
2009,02,21,16,12,7.70
2009,02,21,16,13,7.70
2009,02,21,16,14,7.70
2009,02,21,16,15,7.70
2009,02,21,16,16,7.70
2009,02,21,16,17,7.80
2009,02,21,16,18,7.80
2009,02,21,16,19,7.80
2009,02,21,16,20,7.80
2009,02,21,16,21,7.80
2009,02,21,16,22,7.80
2009,02,21,16,23,7.80
2009,02,21,16,24,7.90
2009,02,21,16,25,7.90
2009,02,21,16,26,7.90
2009,02,21,16,27,7.80
2009,02,21,16,28,7.80
2009,02,21,16,29,7.80
2009,02,21,16,30,7.80
2009,02,21,16,31,7.80
2009,02,21,16,32,7.80
2009,02,21,16,33,7.80
2009,02,21,16,34,7.70
2009,02,21,16,35,7.70
2009,02,21,16,36,7.70
2009,02,21,16,37,7.70
2009,02,21,16,38,7.60
2009,02,21,16,39,7.60
2009,02,21,16,40,7.60
2009,02,21,16,41,7.60
2009,02,21,16,42,7.60
2009,02,21,16,43,7.50
2009,02,21,16,44,7.50
2009,02,21,16,45,7.50
2009,02,21,16,46,7.50
2009,02,21,16,47,7.40
2009,02,21,16,48,7.40
2009,02,21,16,49,7.40
2009,02,21,16,50,7.30
2009,02,21,16,51,7.30
2009,02,21,16,52,7.30
2009,02,21,16,53,7.30
2009,02,21,16,54,7.30
2009,02,21,16,55,7.30
2009,02,21,16,56,7.20
2009,02,21,16,57,7.20
2009,02,21,16,58,7.20
2009,02,21,16,59,7.20
2009,02,21,17,00,7.20
2009,02,21,17,01,7.20
2009,02,21,17,02,7.20
2009,02,21,17,03,7.20
2009,02,21,17,04,7.10
2009,02,21,17,05,7.10
2009,02,21,17,06,7.10
2009,02,21,17,07,7.10
2009,02,21,17,08,7.00
2009,02,21,17,09,7.00
2009,02,21,17,10,7.00
2009,02,21,17,11,7.00
2009,02,21,17,12,6.90
2009,02,21,17,13,6.90
2009,02,21,17,14,6.90
2009,02,21,17,15,6.90
2009,02,21,17,16,6.90
2009,02,21,17,17,6.90
2009,02,21,17,18,6.90
2009,02,21,17,19,6.80
2009,02,21,17,20,6.80
2009,02,21,17,21,6.80
2009,02,21,17,22,6.80
2009,02,21,17,23,6.70
2009,02,21,17,24,6.70
2009,02,21,17,25,6.60
2009,02,21,17,26,6.50
2009,02,21,17,27,6.50
2009,02,21,17,28,6.40
2009,02,21,17,29,6.30
2009,02,21,17,30,6.30
2009,02,21,17,31,6.30
2009,02,21,17,32,6.30
2009,02,21,17,33,6.30
2009,02,21,17,34,6.30
2009,02,21,17,35,6.30
2009,02,21,17,36,6.30
2009,02,21,17,37,6.20
2009,02,21,17,38,6.30
2009,02,21,17,39,6.30
2009,02,21,17,40,6.30
2009,02,21,17,41,6.40
2009,02,21,17,42,6.40
2009,02,21,17,43,6.40
2009,02,21,17,44,6.50
2009,02,21,17,45,6.50
2009,02,21,17,46,6.50
2009,02,21,17,47,6.50
2009,02,21,17,48,6.50
2009,02,21,17,49,6.40
2009,02,21,17,50,6.40
2009,02,21,17,51,6.40
2009,02,21,17,52,6.40
2009,02,21,17,53,6.40
2009,02,21,17,54,6.30
2009,02,21,17,55,6.30
2009,02,21,17,56,6.30
2009,02,21,17,57,6.30
2009,02,21,17,58,6.30
2009,02,21,17,59,6.30
2009,02,21,18,00,6.30
2009,02,21,18,01,6.30
2009,02,21,18,02,6.40
2009,02,21,18,03,6.40
2009,02,21,18,04,6.50
2009,02,21,18,05,6.50
2009,02,21,18,06,6.50
2009,02,21,18,07,6.40
2009,02,21,18,08,6.30
2009,02,21,18,09,6.30
2009,02,21,18,10,6.20
2009,02,21,18,11,6.10
2009,02,21,18,12,6.00
2009,02,21,18,13,5.90
2009,02,21,18,14,5.80
2009,02,21,18,15,5.80
2009,02,21,18,16,5.80
2009,02,21,18,17,5.70
2009,02,21,18,18,5.70
2009,02,21,18,19,5.70
2009,02,21,18,20,5.70
2009,02,21,18,21,5.70
2009,02,21,18,22,5.70
2009,02,21,18,23,5.70
2009,02,21,18,24,5.70
2009,02,21,18,25,5.70
2009,02,21,18,26,5.70
2009,02,21,18,27,5.80
2009,02,21,18,28,5.80
2009,02,21,18,29,5.70
2009,02,21,18,30,5.70
2009,02,21,18,31,5.70
2009,02,21,18,32,5.70
2009,02,21,18,33,5.70
2009,02,21,18,34,5.70
2009,02,21,18,35,5.60
2009,02,21,18,36,5.60
2009,02,21,18,37,5.60
2009,02,21,18,38,5.60
2009,02,21,18,39,5.60
2009,02,21,18,40,5.60
2009,02,21,18,41,5.60
2009,02,21,18,42,5.60
2009,02,21,18,43,5.70
2009,02,21,18,44,5.70
2009,02,21,18,45,5.70
2009,02,21,18,46,5.70
2009,02,21,18,47,5.70
2009,02,21,18,48,5.70
2009,02,21,18,49,5.70
2009,02,21,18,50,5.60
2009,02,21,18,51,5.60
2009,02,21,18,52,5.60
2009,02,21,18,53,5.70
2009,02,21,18,54,5.70
2009,02,21,18,55,5.70
2009,02,21,18,56,5.60
2009,02,21,18,57,5.60
2009,02,21,18,58,5.60
2009,02,21,18,59,5.60
2009,02,21,19,00,5.50
2009,02,21,19,01,5.40
2009,02,21,19,02,5.40
2009,02,21,19,03,5.30
2009,02,21,19,04,5.30
2009,02,21,19,05,5.30
2009,02,21,19,06,5.30
2009,02,21,19,07,5.30
2009,02,21,19,08,5.30
2009,02,21,19,09,5.30
2009,02,21,19,10,5.30
2009,02,21,19,11,5.30
2009,02,21,19,12,5.30
2009,02,21,19,13,5.30
2009,02,21,19,14,5.30
2009,02,21,19,15,5.30
2009,02,21,19,16,5.40
2009,02,21,19,17,5.40
2009,02,21,19,18,5.50
2009,02,21,19,19,5.60
2009,02,21,19,20,5.60
2009,02,21,19,21,5.70
2009,02,21,19,22,5.70
2009,02,21,19,23,5.70
2009,02,21,19,24,5.70
2009,02,21,19,25,5.60
2009,02,21,19,26,5.60
2009,02,21,19,27,5.60
2009,02,21,19,28,5.60
2009,02,21,19,29,5.60
2009,02,21,19,30,5.50
2009,02,21,19,31,5.50
2009,02,21,19,32,5.40
2009,02,21,19,33,5.40
2009,02,21,19,34,5.30
2009,02,21,19,35,5.20
2009,02,21,19,36,5.20
2009,02,21,19,37,5.10
2009,02,21,19,38,5.10
2009,02,21,19,39,5.00
2009,02,21,19,40,5.00
2009,02,21,19,41,5.00
2009,02,21,19,42,5.00
2009,02,21,19,43,5.00
2009,02,21,19,44,5.00
2009,02,21,19,45,5.00
2009,02,21,19,46,5.00
2009,02,21,19,47,5.10
2009,02,21,19,48,5.10
2009,02,21,19,49,5.10
2009,02,21,19,50,5.10
2009,02,21,19,51,5.10
2009,02,21,19,52,5.10
2009,02,21,19,53,5.00
2009,02,21,19,54,5.00
2009,02,21,19,55,5.00
2009,02,21,19,56,4.90
2009,02,21,19,57,4.90
2009,02,21,19,58,4.90
2009,02,21,19,59,4.90
2009,02,21,20,00,4.80
2009,02,21,20,01,4.80
2009,02,21,20,02,4.80
2009,02,21,20,03,4.70
2009,02,21,20,04,4.70
2009,02,21,20,05,4.70
2009,02,21,20,06,4.70
2009,02,21,20,07,4.60
2009,02,21,20,08,4.60
2009,02,21,20,09,4.60
2009,02,21,20,10,4.60
2009,02,21,20,11,4.60
2009,02,21,20,12,4.60
2009,02,21,20,13,4.60
2009,02,21,20,14,4.50
2009,02,21,20,15,4.50
2009,02,21,20,16,4.50
2009,02,21,20,17,4.40
2009,02,21,20,18,4.40
2009,02,21,20,19,4.40
2009,02,21,20,20,4.40
2009,02,21,20,21,4.30
2009,02,21,20,22,4.30
2009,02,21,20,23,4.30
2009,02,21,20,24,4.40
2009,02,21,20,25,4.40
2009,02,21,20,26,4.40
2009,02,21,20,27,4.40
2009,02,21,20,28,4.50
2009,02,21,20,29,4.50
2009,02,21,20,30,4.60
2009,02,21,20,31,4.60
2009,02,21,20,32,4.60
2009,02,21,20,33,4.60
2009,02,21,20,34,4.50
2009,02,21,20,35,4.50
2009,02,21,20,36,4.50
2009,02,21,20,37,4.40
2009,02,21,20,38,4.40
2009,02,21,20,39,4.40
2009,02,21,20,40,4.40
2009,02,21,20,41,4.40
2009,02,21,20,42,4.40
2009,02,21,20,43,4.40
2009,02,21,20,44,4.40
2009,02,21,20,45,4.50
2009,02,21,20,46,4.50
2009,02,21,20,47,4.50
2009,02,21,20,48,4.50
2009,02,21,20,49,4.50
2009,02,21,20,50,4.50
2009,02,21,20,51,4.50
2009,02,21,20,52,4.50
2009,02,21,20,53,4.50
2009,02,21,20,54,4.40
2009,02,21,20,55,4.40
2009,02,21,20,56,4.40
2009,02,21,20,57,4.40
2009,02,21,20,58,4.40
2009,02,21,20,59,4.40
2009,02,21,21,00,4.40
2009,02,21,21,01,4.40
2009,02,21,21,02,4.40
2009,02,21,21,03,4.40
2009,02,21,21,04,4.50
2009,02,21,21,05,4.50
2009,02,21,21,06,4.60
2009,02,21,21,07,4.60
2009,02,21,21,08,4.70
2009,02,21,21,09,4.80
2009,02,21,21,10,4.80
2009,02,21,21,11,4.80
2009,02,21,21,12,4.80
2009,02,21,21,13,4.80
2009,02,21,21,14,4.70
2009,02,21,21,15,4.70
2009,02,21,21,16,4.70
2009,02,21,21,17,4.70
2009,02,21,21,18,4.70
2009,02,21,21,19,4.60
2009,02,21,21,20,4.60
2009,02,21,21,21,4.60
2009,02,21,21,22,4.60
2009,02,21,21,23,4.60
2009,02,21,21,24,4.60
2009,02,21,21,25,4.60
2009,02,21,21,26,4.60
2009,02,21,21,27,4.60
2009,02,21,21,28,4.60
2009,02,21,21,29,4.60
2009,02,21,21,30,4.60
2009,02,21,21,31,4.60
2009,02,21,21,32,4.60
2009,02,21,21,33,4.60
2009,02,21,21,34,4.60
2009,02,21,21,35,4.60
2009,02,21,21,36,4.60
2009,02,21,21,37,4.60
2009,02,21,21,38,4.70
2009,02,21,21,39,4.70
2009,02,21,21,40,4.70
2009,02,21,21,41,4.70
2009,02,21,21,42,4.70
2009,02,21,21,43,4.60
2009,02,21,21,44,4.60
2009,02,21,21,45,4.60
2009,02,21,21,46,4.60
2009,02,21,21,47,4.60
2009,02,21,21,48,4.60
2009,02,21,21,49,4.60
2009,02,21,21,50,4.60
2009,02,21,21,51,4.60
2009,02,21,21,52,4.60
2009,02,21,21,53,4.60
2009,02,21,21,54,4.60
2009,02,21,21,55,4.60
2009,02,21,21,56,4.50
2009,02,21,21,57,4.50
2009,02,21,21,58,4.50
2009,02,21,21,59,4.50
2009,02,21,22,00,4.40
2009,02,21,22,01,4.40
2009,02,21,22,02,4.40
2009,02,21,22,03,4.40
2009,02,21,22,04,4.30
2009,02,21,22,05,4.30
2009,02,21,22,06,4.30
2009,02,21,22,07,4.20
2009,02,21,22,08,4.20
2009,02,21,22,09,4.20
2009,02,21,22,10,4.10
2009,02,21,22,11,4.10
2009,02,21,22,12,4.00
2009,02,21,22,13,4.00
2009,02,21,22,14,3.90
2009,02,21,22,15,3.90
2009,02,21,22,16,3.90
2009,02,21,22,17,3.90
2009,02,21,22,18,3.90
2009,02,21,22,19,3.90
2009,02,21,22,20,3.90
2009,02,21,22,21,3.90
2009,02,21,22,22,3.90
2009,02,21,22,23,3.90
2009,02,21,22,24,3.90
2009,02,21,22,25,3.90
2009,02,21,22,26,3.90
2009,02,21,22,27,3.80
2009,02,21,22,28,3.80
2009,02,21,22,29,3.80
2009,02,21,22,30,3.80
2009,02,21,22,31,3.80
2009,02,21,22,32,3.80
2009,02,21,22,33,3.80
2009,02,21,22,34,3.80
2009,02,21,22,35,3.90
2009,02,21,22,36,3.90
2009,02,21,22,37,3.90
2009,02,21,22,38,3.90
2009,02,21,22,39,3.90
2009,02,21,22,40,3.90
2009,02,21,22,41,3.90
2009,02,21,22,42,3.90
2009,02,21,22,43,3.90
2009,02,21,22,44,3.90
2009,02,21,22,45,3.90
2009,02,21,22,46,3.90
2009,02,21,22,47,3.90
2009,02,21,22,48,3.90
2009,02,21,22,49,3.90
2009,02,21,22,50,3.90
2009,02,21,22,51,3.90
2009,02,21,22,52,3.90
2009,02,21,22,53,3.90
2009,02,21,22,54,3.90
2009,02,21,22,55,3.90
2009,02,21,22,56,3.90
2009,02,21,22,57,3.90
2009,02,21,22,58,3.90
2009,02,21,22,59,3.90
2009,02,21,23,00,3.90
2009,02,21,23,01,3.90
2009,02,21,23,02,4.00
2009,02,21,23,03,4.00
2009,02,21,23,04,4.00
2009,02,21,23,05,4.10
2009,02,21,23,06,4.10
2009,02,21,23,07,4.10
2009,02,21,23,08,4.10
2009,02,21,23,09,4.10
2009,02,21,23,10,4.10
2009,02,21,23,11,4.10
2009,02,21,23,12,4.10
2009,02,21,23,13,4.10
2009,02,21,23,14,4.10
2009,02,21,23,15,4.10
2009,02,21,23,16,4.10
2009,02,21,23,17,4.20
2009,02,21,23,18,4.20
2009,02,21,23,19,4.20
2009,02,21,23,20,4.20
2009,02,21,23,21,4.20
2009,02,21,23,22,4.20
2009,02,21,23,23,4.20
2009,02,21,23,24,4.20
2009,02,21,23,25,4.20
2009,02,21,23,26,4.20
2009,02,21,23,27,4.20
2009,02,21,23,28,4.20
2009,02,21,23,29,4.20
2009,02,21,23,30,4.20
2009,02,21,23,31,4.20
2009,02,21,23,32,4.20
2009,02,21,23,33,4.20
2009,02,21,23,34,4.20
2009,02,21,23,35,4.20
2009,02,21,23,36,4.20
2009,02,21,23,37,4.30
2009,02,21,23,38,4.30
2009,02,21,23,39,4.30
2009,02,21,23,40,4.30
2009,02,21,23,41,4.30
2009,02,21,23,42,4.30
2009,02,21,23,43,4.30
2009,02,21,23,44,4.30
2009,02,21,23,45,4.30
2009,02,21,23,46,4.30
2009,02,21,23,47,4.30
2009,02,21,23,48,4.30
2009,02,21,23,49,4.30
2009,02,21,23,50,4.30
2009,02,21,23,51,4.30
2009,02,21,23,52,4.30
2009,02,21,23,53,4.30
2009,02,21,23,54,4.30
2009,02,21,23,55,4.30
2009,02,21,23,56,4.30
2009,02,21,23,57,4.30
2009,02,21,23,58,4.30
2009,02,21,23,59,4.30
